Time,TemperatureF,DewpointF,PressureIn,WindDirection,WindDirectionDegrees,WindSpeedMPH,WindSpeedGustMPH,Humidity,HourlyPrecipIn,Conditions,Clouds,dailyrainin,SolarRadiationWatts/m^2,SoftwareType,DateUTC
2013-09-11 00:00:00,68.9,66.2,30.28,SSW,209,0.0,0.0,91,0.00,,,0.00,0,Wunderground v.1.15,2013-09-11 04:00:00,
2013-09-11 00:05:00,68.9,65.8,30.28,SSW,209,0.0,0.0,90,0.00,,,0.00,0,Wunderground v.1.15,2013-09-11 04:05:00,
2013-09-11 00:10:00,68.8,65.7,30.28,SSW,209,0.0,0.0,90,0.00,,,0.00,0,Wunderground v.1.15,2013-09-11 04:10:00,
2013-09-11 00:15:00,68.9,65.8,30.28,SSW,209,0.0,0.0,90,0.00,,,0.00,0,Wunderground v.1.15,2013-09-11 04:15:00,
2013-09-11 00:19:00,68.9,65.5,30.28,SSW,212,0.0,0.0,89,0.00,,,0.00,0,Wunderground v.1.15,2013-09-11 04:19:00,
2013-09-11 00:25:00,69.1,65.4,30.27,SSW,211,0.0,0.0,88,0.00,,,0.00,0,Wunderground v.1.15,2013-09-11 04:25:00,
2013-09-11 00:30:00,69.3,65.3,30.27,NNE,14,0.0,1.0,87,0.00,,,0.00,0,Wunderground v.1.15,2013-09-11 04:30:00,
2013-09-11 00:35:00,69.5,65.5,30.27,NNE,14,1.0,1.0,87,0.00,,,0.00,0,Wunderground v.1.15,2013-09-11 04:35:00,
2013-09-11 00:40:00,69.7,65.3,30.27,North,11,0.0,0.0,86,0.00,,,0.00,0,Wunderground v.1.15,2013-09-11 04:40:00,
2013-09-11 00:44:00,69.8,65.8,30.27,North,11,0.0,1.0,87,0.00,,,0.00,0,Wunderground v.1.15,2013-09-11 04:44:00,
2013-09-11 00:49:00,69.9,65.5,30.27,North,11,0.0,0.0,86,0.00,,,0.00,0,Wunderground v.1.15,2013-09-11 04:49:00,
2013-09-11 00:55:00,69.9,65.5,30.27,NNE,12,0.0,0.0,86,0.00,,,0.00,0,Wunderground v.1.15,2013-09-11 04:55:00,
2013-09-11 01:00:00,69.9,65.2,30.27,NNE,12,0.0,0.0,85,0.00,,,0.00,0,Wunderground v.1.15,2013-09-11 05:00:00,
2013-09-11 01:05:00,69.9,65.2,30.27,NNE,12,0.0,0.0,85,0.00,,,0.00,0,Wunderground v.1.15,2013-09-11 05:05:00,
2013-09-11 01:10:00,69.9,65.2,30.26,North,11,0.0,0.0,85,0.00,,,0.00,0,Wunderground v.1.15,2013-09-11 05:10:00,
2013-09-11 01:15:00,69.9,65.2,30.26,NNE,17,0.0,0.0,85,0.00,,,0.00,0,Wunderground v.1.15,2013-09-11 05:15:00,
2013-09-11 01:20:00,69.8,65.1,30.26,NNE,17,0.0,0.0,85,0.00,,,0.00,0,Wunderground v.1.15,2013-09-11 05:20:00,
2013-09-11 01:25:00,69.7,65.0,30.26,NNE,30,0.0,0.0,85,0.00,,,0.00,0,Wunderground v.1.15,2013-09-11 05:25:00,
2013-09-11 01:30:00,69.6,64.5,30.26,NNE,23,0.0,0.0,84,0.00,,,0.00,0,Wunderground v.1.15,2013-09-11 05:30:00,
2013-09-11 01:35:00,69.7,64.6,30.25,NNE,28,0.0,0.0,84,0.00,,,0.00,0,Wunderground v.1.15,2013-09-11 05:35:00,
2013-09-11 01:40:00,69.7,64.6,30.25,NW,306,0.0,0.0,84,0.00,,,0.00,0,Wunderground v.1.15,2013-09-11 05:40:00,
2013-09-11 01:44:00,69.8,65.1,30.25,NW,307,0.0,0.0,85,0.00,,,0.00,0,Wunderground v.1.15,2013-09-11 05:44:00,
2013-09-11 01:50:00,69.8,64.7,30.25,NW,307,0.0,0.0,84,0.00,,,0.00,0,Wunderground v.1.15,2013-09-11 05:50:00,
2013-09-11 01:55:00,69.9,64.8,30.26,NW,307,0.0,0.0,84,0.00,,,0.00,0,Wunderground v.1.15,2013-09-11 05:55:00,
2013-09-11 02:00:00,69.9,65.2,30.25,NW,307,0.0,1.0,85,0.00,,,0.00,0,Wunderground v.1.15,2013-09-11 06:00:00,
2013-09-11 02:04:00,69.8,64.7,30.25,NW,307,0.0,1.0,84,0.00,,,0.00,0,Wunderground v.1.15,2013-09-11 06:04:00,
2013-09-11 02:09:00,69.7,65.3,30.26,NW,307,0.0,0.0,86,0.00,,,0.00,0,Wunderground v.1.15,2013-09-11 06:09:00,
2013-09-11 02:15:00,69.4,65.0,30.26,NW,307,0.0,0.0,86,0.00,,,0.00,0,Wunderground v.1.15,2013-09-11 06:15:00,
2013-09-11 02:20:00,69.2,64.8,30.25,NW,307,0.0,0.0,86,0.00,,,0.00,0,Wunderground v.1.15,2013-09-11 06:20:00,
2013-09-11 02:25:00,69.0,64.6,30.25,NW,307,0.0,0.0,86,0.00,,,0.00,0,Wunderground v.1.15,2013-09-11 06:25:00,
2013-09-11 02:30:00,68.7,64.7,30.25,NW,307,0.0,0.0,87,0.00,,,0.00,0,Wunderground v.1.15,2013-09-11 06:30:00,
2013-09-11 02:39:00,68.4,64.4,30.25,NW,307,0.0,0.0,87,0.00,,,0.00,0,Wunderground v.1.15,2013-09-11 06:39:00,
2013-09-11 02:45:00,68.2,64.2,30.25,NW,307,0.0,0.0,87,0.00,,,0.00,0,Wunderground v.1.15,2013-09-11 06:45:00,
2013-09-11 02:50:00,68.1,64.1,30.25,NW,307,0.0,0.0,87,0.00,,,0.00,0,Wunderground v.1.15,2013-09-11 06:50:00,
2013-09-11 02:55:00,68.0,63.7,30.25,NW,307,0.0,0.0,86,0.00,,,0.00,0,Wunderground v.1.15,2013-09-11 06:55:00,
2013-09-11 03:00:00,67.9,63.9,30.25,NW,307,0.0,0.0,87,0.00,,,0.00,0,Wunderground v.1.15,2013-09-11 07:00:00,
2013-09-11 03:05:00,67.9,63.9,30.25,NW,307,0.0,0.0,87,0.00,,,0.00,0,Wunderground v.1.15,2013-09-11 07:05:00,
2013-09-11 03:10:00,67.9,63.6,30.25,NW,307,0.0,0.0,86,0.00,,,0.00,0,Wunderground v.1.15,2013-09-11 07:10:00,
2013-09-11 03:15:00,67.8,63.5,30.24,NW,307,0.0,0.0,86,0.00,,,0.00,0,Wunderground v.1.15,2013-09-11 07:15:00,
2013-09-11 03:20:00,67.8,63.5,30.24,NW,307,0.0,0.0,86,0.00,,,0.00,0,Wunderground v.1.15,2013-09-11 07:20:00,
2013-09-11 03:24:00,67.8,63.5,30.24,NW,307,0.0,0.0,86,0.00,,,0.00,0,Wunderground v.1.15,2013-09-11 07:24:00,
2013-09-11 03:30:00,67.7,63.4,30.24,NW,307,0.0,0.0,86,0.00,,,0.00,0,Wunderground v.1.15,2013-09-11 07:30:00,
2013-09-11 03:34:00,67.7,63.0,30.24,NW,307,0.0,0.0,85,0.00,,,0.00,0,Wunderground v.1.15,2013-09-11 07:34:00,
2013-09-11 03:39:00,67.7,63.0,30.24,NW,307,0.0,0.0,85,0.00,,,0.00,0,Wunderground v.1.15,2013-09-11 07:39:00,
2013-09-11 03:45:00,67.6,63.3,30.24,NW,307,0.0,0.0,86,0.00,,,0.00,0,Wunderground v.1.15,2013-09-11 07:45:00,
2013-09-11 03:50:00,67.6,62.9,30.24,NW,307,0.0,0.0,85,0.00,,,0.00,0,Wunderground v.1.15,2013-09-11 07:50:00,
2013-09-11 04:00:00,67.5,62.8,30.24,NW,307,0.0,1.0,85,0.00,,,0.00,0,Wunderground v.1.15,2013-09-11 08:00:00,
2013-09-11 04:05:00,67.5,62.8,30.24,NW,307,0.0,1.0,85,0.00,,,0.00,0,Wunderground v.1.15,2013-09-11 08:05:00,
2013-09-11 04:15:00,68.0,62.3,30.23,NNW,345,2.0,4.0,82,0.00,,,0.00,0,Wunderground v.1.15,2013-09-11 08:15:00,
2013-09-11 04:20:00,68.5,62.1,30.23,NNE,12,2.0,3.0,80,0.00,,,0.00,0,Wunderground v.1.15,2013-09-11 08:20:00,
2013-09-11 04:25:00,69.1,62.7,30.23,NW,319,2.0,3.0,80,0.00,,,0.00,0,Wunderground v.1.15,2013-09-11 08:25:00,
2013-09-11 04:29:00,69.6,62.8,30.23,NNW,338,2.0,4.0,79,0.00,,,0.00,0,Wunderground v.1.15,2013-09-11 08:29:00,
2013-09-11 04:35:00,70.0,62.8,30.23,North,349,2.0,4.0,78,0.00,,,0.00,0,Wunderground v.1.15,2013-09-11 08:35:00,
2013-09-11 04:40:00,70.3,62.7,30.23,NNE,14,3.0,4.0,77,0.00,,,0.00,0,Wunderground v.1.15,2013-09-11 08:40:00,
2013-09-11 04:45:00,70.6,62.7,30.23,North,360,3.0,4.0,76,0.00,,,0.00,0,Wunderground v.1.15,2013-09-11 08:45:00,
2013-09-11 04:50:00,70.8,62.9,30.23,North,360,3.0,3.0,76,0.00,,,0.00,0,Wunderground v.1.15,2013-09-11 08:50:00,
2013-09-11 04:55:00,71.1,62.8,30.23,North,5,3.0,3.0,75,0.00,,,0.00,0,Wunderground v.1.15,2013-09-11 08:55:00,
2013-09-11 05:00:00,71.2,62.9,30.23,NNE,15,2.0,2.0,75,0.00,,,0.00,0,Wunderground v.1.15,2013-09-11 09:00:00,
2013-09-11 05:05:00,71.2,62.9,30.23,North,355,2.0,2.0,75,0.00,,,0.00,0,Wunderground v.1.15,2013-09-11 09:05:00,
2013-09-11 05:10:00,71.2,62.9,30.23,North,355,2.0,2.0,75,0.00,,,0.00,0,Wunderground v.1.15,2013-09-11 09:10:00,
2013-09-11 05:14:00,71.2,62.9,30.23,North,5,3.0,3.0,75,0.00,,,0.00,0,Wunderground v.1.15,2013-09-11 09:14:00,
2013-09-11 05:19:00,71.1,62.8,30.23,North,355,3.0,3.0,75,0.00,,,0.00,0,Wunderground v.1.15,2013-09-11 09:19:00,
2013-09-11 05:25:00,71.0,63.1,30.23,NNW,338,2.0,3.0,76,0.00,,,0.00,0,Wunderground v.1.15,2013-09-11 09:25:00,
2013-09-11 05:30:00,70.8,63.2,30.23,NNE,15,2.0,2.0,77,0.00,,,0.00,0,Wunderground v.1.15,2013-09-11 09:30:00,
2013-09-11 05:34:00,70.5,62.9,30.24,NNW,337,3.0,3.0,77,0.00,,,0.00,0,Wunderground v.1.15,2013-09-11 09:34:00,
2013-09-11 05:40:00,70.4,63.2,30.24,NNW,334,3.0,3.0,78,0.00,,,0.00,0,Wunderground v.1.15,2013-09-11 09:40:00,
2013-09-11 05:50:00,70.1,63.3,30.24,NNW,341,2.0,2.0,79,0.00,,,0.00,0,Wunderground v.1.15,2013-09-11 09:50:00,
2013-09-11 05:55:00,69.9,63.1,30.24,NNW,341,3.0,3.0,79,0.00,,,0.00,0,Wunderground v.1.15,2013-09-11 09:55:00,
2013-09-11 06:00:00,69.9,63.4,30.24,NNW,329,2.0,2.0,80,0.00,,,0.00,0,Wunderground v.1.15,2013-09-11 10:00:00,
2013-09-11 06:09:00,69.7,63.6,30.25,NNW,336,1.0,3.0,81,0.00,,,0.00,0,Wunderground v.1.15,2013-09-11 10:09:00,
2013-09-11 06:15:00,69.6,63.5,30.25,NNW,348,1.0,4.0,81,0.00,,,0.00,0,Wunderground v.1.15,2013-09-11 10:15:00,
2013-09-11 06:20:00,69.6,63.9,30.25,North,360,2.0,2.0,82,0.00,,,0.00,0,Wunderground v.1.15,2013-09-11 10:20:00,
2013-09-11 06:29:00,69.4,63.7,30.25,North,360,1.0,1.0,82,0.00,,,0.00,0,Wunderground v.1.15,2013-09-11 10:29:00,
2013-09-11 06:35:00,69.4,64.0,30.25,North,360,1.0,1.0,83,0.00,,,0.00,0,Wunderground v.1.15,2013-09-11 10:35:00,
2013-09-11 06:40:00,69.3,63.9,30.25,North,360,0.0,0.0,83,0.00,,,0.00,0,Wunderground v.1.15,2013-09-11 10:40:00,
2013-09-11 06:45:00,69.2,64.2,30.25,NNW,338,0.0,0.0,84,0.00,,,0.00,0,Wunderground v.1.15,2013-09-11 10:45:00,
2013-09-11 06:50:00,69.2,64.2,30.25,NNW,336,1.0,2.0,84,0.00,,,0.00,0,Wunderground v.1.15,2013-09-11 10:50:00,
2013-09-11 06:54:00,69.2,64.2,30.25,North,355,2.0,3.0,84,0.00,,,0.00,0,Wunderground v.1.15,2013-09-11 10:54:00,
2013-09-11 07:00:00,69.3,64.3,30.25,NNW,344,2.0,2.0,84,0.00,,,0.00,0,Wunderground v.1.15,2013-09-11 11:00:00,
2013-09-11 07:10:00,69.3,64.6,30.25,North,355,3.0,3.0,85,0.00,,,0.00,0,Wunderground v.1.15,2013-09-11 11:10:00,
2013-09-11 07:15:00,69.3,64.6,30.25,NNW,333,3.0,3.0,85,0.00,,,0.00,5,Wunderground v.1.15,2013-09-11 11:15:00,
2013-09-11 07:20:00,69.3,64.6,30.25,North,355,2.0,3.0,85,0.00,,,0.00,9,Wunderground v.1.15,2013-09-11 11:20:00,
2013-09-11 07:30:00,69.3,64.6,30.26,NNW,334,1.0,2.0,85,0.00,,,0.00,16,Wunderground v.1.15,2013-09-11 11:30:00,
2013-09-11 07:35:00,69.3,64.6,30.26,NNW,334,1.0,2.0,85,0.00,,,0.00,21,Wunderground v.1.15,2013-09-11 11:35:00,
2013-09-11 07:40:00,69.3,64.6,30.26,WNW,298,1.0,2.0,85,0.00,,,0.00,28,Wunderground v.1.15,2013-09-11 11:40:00,
2013-09-11 07:50:00,69.4,64.7,30.26,NNW,343,2.0,3.0,85,0.00,,,0.00,33,Wunderground v.1.15,2013-09-11 11:50:00,
2013-09-11 07:55:00,69.5,65.1,30.26,North,360,2.0,3.0,86,0.00,,,0.00,40,Wunderground v.1.15,2013-09-11 11:55:00,
2013-09-11 08:00:00,69.5,65.1,30.26,NNW,341,3.0,3.0,86,0.00,,,0.00,39,Wunderground v.1.15,2013-09-11 12:00:00,
2013-09-11 08:04:00,69.6,65.2,30.26,NW,313,2.0,4.0,86,0.00,,,0.00,33,Wunderground v.1.15,2013-09-11 12:04:00,
2013-09-11 08:09:00,69.7,65.3,30.26,North,350,2.0,2.0,86,0.00,,,0.00,33,Wunderground v.1.15,2013-09-11 12:09:00,
2013-09-11 08:19:00,69.7,65.3,30.26,NNW,333,2.0,4.0,86,0.00,,,0.00,21,Wunderground v.1.15,2013-09-11 12:19:00,
2013-09-11 08:24:00,69.8,65.4,30.26,North,360,2.0,4.0,86,0.00,,,0.00,19,Wunderground v.1.15,2013-09-11 12:24:00,
2013-09-11 08:29:00,69.8,65.4,30.26,North,350,3.0,4.0,86,0.00,,,0.00,21,Wunderground v.1.15,2013-09-11 12:29:00,
2013-09-11 08:35:00,69.7,65.7,30.26,North,355,3.0,4.0,87,0.00,,,0.00,23,Wunderground v.1.15,2013-09-11 12:35:00,
2013-09-11 08:40:00,69.8,65.8,30.26,North,355,3.0,3.0,87,0.00,,,0.00,25,Wunderground v.1.15,2013-09-11 12:40:00,
2013-09-11 08:45:00,69.9,65.9,30.26,North,351,2.0,3.0,87,0.00,,,0.00,28,Wunderground v.1.15,2013-09-11 12:45:00,
2013-09-11 08:50:00,69.9,65.9,30.26,North,355,1.0,1.0,87,0.00,,,0.00,35,Wunderground v.1.15,2013-09-11 12:50:00,
2013-09-11 08:54:00,70.0,66.0,30.26,North,355,0.0,1.0,87,0.00,,,0.00,39,Wunderground v.1.15,2013-09-11 12:54:00,
2013-09-11 09:00:00,70.2,66.1,30.26,North,355,0.0,1.0,87,0.00,,,0.00,46,Wunderground v.1.15,2013-09-11 13:00:00,
2013-09-11 09:05:00,70.3,66.6,30.26,North,355,0.0,1.0,88,0.00,,,0.00,39,Wunderground v.1.15,2013-09-11 13:05:00,
2013-09-11 09:10:00,70.4,66.7,30.26,North,355,0.0,0.0,88,0.00,,,0.00,42,Wunderground v.1.15,2013-09-11 13:10:00,
2013-09-11 09:15:00,70.4,66.3,30.26,North,11,0.0,4.0,87,0.00,,,0.00,62,Wunderground v.1.15,2013-09-11 13:15:00,
2013-09-11 09:20:00,70.6,66.2,30.26,NNW,337,1.0,1.0,86,0.00,,,0.00,77,Wunderground v.1.15,2013-09-11 13:20:00,
2013-09-11 09:24:00,70.7,66.3,30.26,North,360,1.0,1.0,86,0.00,,,0.00,102,Wunderground v.1.15,2013-09-11 13:24:00,
2013-09-11 09:29:00,70.9,66.8,30.26,North,360,0.0,0.0,87,0.00,,,0.00,88,Wunderground v.1.15,2013-09-11 13:29:00,
2013-09-11 09:35:00,71.1,66.7,30.26,North,350,0.0,3.0,86,0.00,,,0.00,53,Wunderground v.1.15,2013-09-11 13:35:00,
2013-09-11 09:40:00,71.3,66.9,30.26,North,360,1.0,4.0,86,0.00,,,0.00,37,Wunderground v.1.15,2013-09-11 13:40:00,
2013-09-11 09:45:00,71.5,66.8,30.26,NNW,340,2.0,4.0,85,0.00,,,0.00,37,Wunderground v.1.15,2013-09-11 13:45:00,
2013-09-11 09:50:00,71.7,66.9,30.26,NW,317,1.0,1.0,85,0.00,,,0.00,39,Wunderground v.1.15,2013-09-11 13:50:00,
2013-09-11 10:00:00,72.0,66.9,30.26,WSW,258,1.0,1.0,84,0.00,,,0.00,40,Wunderground v.1.15,2013-09-11 14:00:00,
2013-09-11 10:05:00,72.2,67.4,30.26,NW,315,1.0,2.0,85,0.00,,,0.00,40,Wunderground v.1.15,2013-09-11 14:05:00,
2013-09-11 10:10:00,72.4,66.9,30.26,SW,229,1.0,3.0,83,0.00,,,0.00,40,Wunderground v.1.15,2013-09-11 14:10:00,
2013-09-11 10:15:00,72.5,67.4,30.26,WSW,242,2.0,3.0,84,0.00,,,0.00,42,Wunderground v.1.15,2013-09-11 14:15:00,
2013-09-11 10:20:00,72.6,67.1,30.26,NNW,346,2.0,2.0,83,0.00,,,0.00,44,Wunderground v.1.15,2013-09-11 14:20:00,
2013-09-11 10:30:00,72.9,67.4,30.26,NW,323,1.0,3.0,83,0.00,,,0.00,46,Wunderground v.1.15,2013-09-11 14:30:00,
2013-09-11 10:35:00,73.0,67.5,30.26,West,259,2.0,3.0,83,0.00,,,0.00,47,Wunderground v.1.15,2013-09-11 14:35:00,
2013-09-11 10:40:00,73.2,67.4,30.26,WSW,255,1.0,1.0,82,0.00,,,0.00,49,Wunderground v.1.15,2013-09-11 14:40:00,
2013-09-11 10:49:00,73.5,67.3,30.26,West,268,1.0,1.0,81,0.00,,,0.00,54,Wunderground v.1.15,2013-09-11 14:49:00,
2013-09-11 10:55:00,73.7,67.5,30.26,North,5,1.0,1.0,81,0.00,,,0.00,58,Wunderground v.1.15,2013-09-11 14:55:00,
2013-09-11 11:00:00,73.8,67.2,30.26,NNW,331,2.0,2.0,80,0.00,,,0.00,63,Wunderground v.1.15,2013-09-11 15:00:00,
2013-09-11 11:09:00,74.1,67.2,30.25,NW,313,2.0,2.0,79,0.00,,,0.00,69,Wunderground v.1.15,2013-09-11 15:09:00,
2013-09-11 11:15:00,74.2,68.0,30.25,WSW,250,1.0,2.0,81,0.00,,,0.00,95,Wunderground v.1.15,2013-09-11 15:15:00,
2013-09-11 11:20:00,74.3,67.4,30.25,North,355,1.0,2.0,79,0.00,,,0.00,83,Wunderground v.1.15,2013-09-11 15:20:00,
2013-09-11 11:29:00,74.6,67.3,30.25,West,271,1.0,1.0,78,0.00,,,0.00,137,Wunderground v.1.15,2013-09-11 15:29:00,
2013-09-11 11:35:00,74.8,68.2,30.25,West,264,1.0,1.0,80,0.00,,,0.00,185,Wunderground v.1.15,2013-09-11 15:35:00,
2013-09-11 11:40:00,75.0,68.0,30.25,SSW,200,0.0,0.0,79,0.00,,,0.00,181,Wunderground v.1.15,2013-09-11 15:40:00,
2013-09-11 11:44:00,75.3,69.4,30.25,SSW,200,0.0,0.0,82,0.00,,,0.00,200,Wunderground v.1.15,2013-09-11 15:44:00,
2013-09-11 11:49:00,75.4,69.5,30.25,SSW,200,0.0,0.0,82,0.00,,,0.00,151,Wunderground v.1.15,2013-09-11 15:49:00,
2013-09-11 11:55:00,75.6,69.4,30.25,SSW,199,0.0,0.0,81,0.00,,,0.00,167,Wunderground v.1.15,2013-09-11 15:55:00,
2013-09-11 12:00:00,75.7,69.8,30.24,SSW,199,0.0,0.0,82,0.00,,,0.00,265,Wunderground v.1.15,2013-09-11 16:00:00,
2013-09-11 12:04:00,75.8,69.9,30.24,SSW,200,0.0,0.0,82,0.00,,,0.00,394,Wunderground v.1.15,2013-09-11 16:04:00,
2013-09-11 12:09:00,76.0,68.6,30.24,NNW,338,1.0,1.0,78,0.00,,,0.00,207,Wunderground v.1.15,2013-09-11 16:09:00,
2013-09-11 12:15:00,76.2,69.6,30.24,NNW,338,1.0,1.0,80,0.00,,,0.00,221,Wunderground v.1.15,2013-09-11 16:15:00,
2013-09-11 12:20:00,76.4,68.7,30.24,NW,323,1.0,3.0,77,0.00,,,0.00,193,Wunderground v.1.15,2013-09-11 16:20:00,
2013-09-11 12:25:00,76.7,68.6,30.23,NNW,344,2.0,3.0,76,0.00,,,0.00,142,Wunderground v.1.15,2013-09-11 16:25:00,
2013-09-11 12:30:00,76.7,68.9,30.23,NNW,335,1.0,1.0,77,0.00,,,0.00,141,Wunderground v.1.15,2013-09-11 16:30:00,
2013-09-11 12:35:00,76.8,69.8,30.23,NNW,335,0.0,1.0,79,0.00,,,0.00,127,Wunderground v.1.15,2013-09-11 16:35:00,
2013-09-11 12:39:00,76.8,70.2,30.23,NNW,335,0.0,0.0,80,0.00,,,0.00,113,Wunderground v.1.15,2013-09-11 16:39:00,
2013-09-11 12:45:00,76.7,70.4,30.23,NNW,335,0.0,0.0,81,0.00,,,0.00,171,Wunderground v.1.15,2013-09-11 16:45:00,
2013-09-11 12:50:00,76.6,71.0,30.23,NNW,335,0.0,0.0,83,0.00,,,0.00,243,Wunderground v.1.15,2013-09-11 16:50:00,
2013-09-11 13:00:00,76.5,69.5,30.22,West,280,0.0,0.0,79,0.00,,,0.00,220,Wunderground v.1.15,2013-09-11 17:00:00,
2013-09-11 13:05:00,76.7,69.7,30.22,WSW,248,1.0,3.0,79,0.00,,,0.00,285,Wunderground v.1.15,2013-09-11 17:05:00,
2013-09-11 13:10:00,77.0,70.4,30.22,WSW,241,1.0,1.0,80,0.00,,,0.00,128,Wunderground v.1.15,2013-09-11 17:10:00,
2013-09-11 13:20:00,77.1,71.2,30.22,West,281,0.0,0.0,82,0.00,,,0.00,134,Wunderground v.1.15,2013-09-11 17:20:00,
2013-09-11 13:29:00,76.9,70.3,30.21,West,281,0.0,0.0,80,0.00,,,0.00,149,Wunderground v.1.15,2013-09-11 17:29:00,
2013-09-11 13:35:00,76.9,70.6,30.21,West,281,0.0,0.0,81,0.00,,,0.00,202,Wunderground v.1.15,2013-09-11 17:35:00,
2013-09-11 13:40:00,76.9,71.3,30.21,West,281,0.0,0.0,83,0.00,,,0.00,946,Wunderground v.1.15,2013-09-11 17:40:00,
2013-09-11 13:49:00,77.4,72.2,30.22,West,276,0.0,0.0,84,0.61,,,0.08,220,Wunderground v.1.15,2013-09-11 17:49:00,
2013-09-11 13:55:00,77.1,72.9,30.21,West,277,0.0,0.0,87,0.91,,,0.14,454,Wunderground v.1.15,2013-09-11 17:55:00,
2013-09-11 14:00:00,76.4,72.2,30.21,WNW,285,1.0,1.0,87,0.90,,,0.22,120,Wunderground v.1.15,2013-09-11 18:00:00,
2013-09-11 14:04:00,75.8,72.0,30.20,WNW,286,1.0,1.0,88,0.57,,,0.27,127,Wunderground v.1.15,2013-09-11 18:04:00,
2013-09-11 14:09:00,75.2,71.7,30.20,WNW,286,0.0,0.0,89,0.15,,,0.28,156,Wunderground v.1.15,2013-09-11 18:09:00,
2013-09-11 14:15:00,74.9,71.8,30.20,WNW,286,0.0,0.0,90,0.11,,,0.29,116,Wunderground v.1.15,2013-09-11 18:15:00,
2013-09-11 14:20:00,74.2,70.7,30.20,WNW,286,0.0,0.0,89,0.06,,,0.29,90,Wunderground v.1.15,2013-09-11 18:20:00,
2013-09-11 14:24:00,73.4,70.0,30.20,WNW,286,0.0,0.0,89,0.05,,,0.30,79,Wunderground v.1.15,2013-09-11 18:24:00,
2013-09-11 14:30:00,72.7,69.3,30.20,WNW,286,0.0,0.0,89,0.05,,,0.30,83,Wunderground v.1.15,2013-09-11 18:30:00,
2013-09-11 14:35:00,72.0,69.2,30.20,WNW,286,0.0,0.0,91,0.04,,,0.30,77,Wunderground v.1.15,2013-09-11 18:35:00,
2013-09-11 14:40:00,71.5,69.1,30.19,WNW,286,0.0,0.0,92,0.00,,,0.30,81,Wunderground v.1.15,2013-09-11 18:40:00,
2013-09-11 14:45:00,71.3,69.5,30.19,WNW,286,0.0,0.0,94,0.00,,,0.30,86,Wunderground v.1.15,2013-09-11 18:45:00,
2013-09-11 14:50:00,71.1,69.6,30.19,WNW,286,0.0,0.0,95,0.00,,,0.30,97,Wunderground v.1.15,2013-09-11 18:50:00,
2013-09-11 14:55:00,71.1,69.9,30.18,WNW,286,0.0,0.0,96,0.00,,,0.30,98,Wunderground v.1.15,2013-09-11 18:55:00,
2013-09-11 15:00:00,70.9,69.7,30.19,WNW,286,0.0,0.0,96,0.00,,,0.30,98,Wunderground v.1.15,2013-09-11 19:00:00,
2013-09-11 15:04:00,70.6,69.4,30.19,WNW,286,0.0,0.0,96,0.00,,,0.30,98,Wunderground v.1.15,2013-09-11 19:04:00,
2013-09-11 15:10:00,70.4,69.2,30.18,WNW,286,0.0,0.0,96,0.00,,,0.30,104,Wunderground v.1.15,2013-09-11 19:10:00,
2013-09-11 15:15:00,70.2,69.0,30.18,WNW,286,0.0,0.0,96,0.00,,,0.30,105,Wunderground v.1.15,2013-09-11 19:15:00,
2013-09-11 15:19:00,69.9,68.7,30.18,WNW,286,0.0,0.0,96,0.00,,,0.30,107,Wunderground v.1.15,2013-09-11 19:19:00,
2013-09-11 15:25:00,69.5,68.3,30.18,WNW,286,0.0,0.0,96,0.00,,,0.30,127,Wunderground v.1.15,2013-09-11 19:25:00,
2013-09-11 15:30:00,69.2,68.0,30.18,WNW,286,0.0,0.0,96,0.00,,,0.30,149,Wunderground v.1.15,2013-09-11 19:30:00,
2013-09-11 15:35:00,69.1,67.9,30.17,WNW,286,0.0,0.0,96,0.00,,,0.30,179,Wunderground v.1.15,2013-09-11 19:35:00,
2013-09-11 15:40:00,69.1,68.2,30.17,WNW,286,0.0,0.0,97,0.00,,,0.30,241,Wunderground v.1.15,2013-09-11 19:40:00,
2013-09-11 15:45:00,69.2,68.6,30.17,WNW,286,0.0,0.0,98,0.00,,,0.30,313,Wunderground v.1.15,2013-09-11 19:45:00,
2013-09-11 15:50:00,69.6,69.3,30.17,WNW,286,0.0,0.0,99,0.00,,,0.30,301,Wunderground v.1.15,2013-09-11 19:50:00,
2013-09-11 15:55:00,70.1,69.8,30.17,WNW,286,0.0,0.0,99,0.00,,,0.30,315,Wunderground v.1.15,2013-09-11 19:55:00,
2013-09-11 16:00:00,70.8,70.8,30.17,WNW,286,0.0,0.0,100,0.00,,,0.30,359,Wunderground v.1.15,2013-09-11 20:00:00,
2013-09-11 16:05:00,71.3,71.3,30.17,WNW,286,0.0,0.0,100,0.00,,,0.30,283,Wunderground v.1.15,2013-09-11 20:05:00,
2013-09-11 16:10:00,71.7,71.7,30.17,WNW,286,0.0,0.0,100,0.00,,,0.30,265,Wunderground v.1.15,2013-09-11 20:10:00,
2013-09-11 16:19:00,72.2,72.2,30.17,WNW,286,0.0,0.0,100,0.00,,,0.30,269,Wunderground v.1.15,2013-09-11 20:19:00,
2013-09-11 16:25:00,72.3,72.3,30.17,WNW,286,0.0,0.0,100,0.00,,,0.30,225,Wunderground v.1.15,2013-09-11 20:25:00,
2013-09-11 16:29:00,72.5,72.5,30.17,WNW,286,0.0,0.0,100,0.00,,,0.30,227,Wunderground v.1.15,2013-09-11 20:29:00,
2013-09-11 16:34:00,72.6,72.6,30.17,WNW,286,0.0,0.0,100,0.00,,,0.30,260,Wunderground v.1.15,2013-09-11 20:34:00,
2013-09-11 16:39:00,72.7,72.7,30.17,WNW,286,0.0,0.0,100,0.00,,,0.30,341,Wunderground v.1.15,2013-09-11 20:39:00,
2013-09-11 16:45:00,73.0,73.0,30.16,WNW,286,0.0,0.0,100,0.00,,,0.30,353,Wunderground v.1.15,2013-09-11 20:45:00,
2013-09-11 16:50:00,73.1,72.8,30.16,WNW,286,0.0,0.0,99,0.00,,,0.30,394,Wunderground v.1.15,2013-09-11 20:50:00,
2013-09-11 16:54:00,73.6,73.3,30.16,WNW,286,0.0,0.0,99,0.00,,,0.30,392,Wunderground v.1.15,2013-09-11 20:54:00,
2013-09-11 17:00:00,74.2,73.6,30.16,WNW,286,0.0,1.0,98,0.00,,,0.30,306,Wunderground v.1.15,2013-09-11 21:00:00,
2013-09-11 17:05:00,74.7,73.8,30.16,WNW,286,0.0,1.0,97,0.00,,,0.30,153,Wunderground v.1.15,2013-09-11 21:05:00,
2013-09-11 17:10:00,74.9,73.7,30.16,WNW,286,0.0,0.0,96,0.00,,,0.30,176,Wunderground v.1.15,2013-09-11 21:10:00,
2013-09-11 17:19:00,75.3,73.5,30.16,WNW,286,0.0,0.0,94,0.00,,,0.30,399,Wunderground v.1.15,2013-09-11 21:19:00,
2013-09-11 17:25:00,75.5,73.3,30.16,WNW,286,0.0,0.0,93,0.00,,,0.30,229,Wunderground v.1.15,2013-09-11 21:25:00,
2013-09-11 17:30:00,75.6,72.8,30.16,WNW,286,0.0,0.0,91,0.00,,,0.30,97,Wunderground v.1.15,2013-09-11 21:30:00,
2013-09-11 17:35:00,75.5,72.0,30.16,WNW,286,0.0,2.0,89,0.00,,,0.30,56,Wunderground v.1.15,2013-09-11 21:35:00,
2013-09-11 17:40:00,75.4,71.6,30.17,WNW,286,0.0,0.0,88,0.00,,,0.30,39,Wunderground v.1.15,2013-09-11 21:40:00,
2013-09-11 17:45:00,75.2,72.1,30.17,WNW,286,0.0,0.0,90,0.00,,,0.30,39,Wunderground v.1.15,2013-09-11 21:45:00,
2013-09-11 17:50:00,75.0,72.2,30.16,WNW,286,0.0,0.0,91,0.00,,,0.30,39,Wunderground v.1.15,2013-09-11 21:50:00,
2013-09-11 18:00:00,74.6,71.8,30.17,WNW,286,0.0,0.0,91,0.00,,,0.30,25,Wunderground v.1.15,2013-09-11 22:00:00,
2013-09-11 18:10:00,74.0,71.5,30.17,WNW,286,0.0,0.0,92,0.00,,,0.30,16,Wunderground v.1.15,2013-09-11 22:10:00,
2013-09-11 18:15:00,73.6,71.1,30.17,WNW,286,0.0,0.0,92,0.00,,,0.30,16,Wunderground v.1.15,2013-09-11 22:15:00,
2013-09-11 18:20:00,73.3,71.2,30.17,WNW,286,0.0,0.0,93,0.00,,,0.30,25,Wunderground v.1.15,2013-09-11 22:20:00,
2013-09-11 18:35:00,72.4,70.9,30.17,WNW,286,0.0,0.0,95,0.00,,,0.30,25,Wunderground v.1.15,2013-09-11 22:35:00,
2013-09-11 18:40:00,72.3,70.8,30.17,WNW,286,0.0,0.0,95,0.00,,,0.30,23,Wunderground v.1.15,2013-09-11 22:40:00,
2013-09-11 18:45:00,72.1,70.6,30.17,WNW,286,0.0,0.0,95,0.00,,,0.30,18,Wunderground v.1.15,2013-09-11 22:45:00,
2013-09-11 18:50:00,72.0,70.5,30.17,WNW,286,0.0,0.0,95,0.00,,,0.30,14,Wunderground v.1.15,2013-09-11 22:50:00,
2013-09-11 19:00:00,71.5,70.0,30.17,WNW,286,0.0,0.0,95,0.00,,,0.30,14,Wunderground v.1.15,2013-09-11 23:00:00,
2013-09-11 19:05:00,71.3,69.5,30.16,WNW,286,0.0,0.0,94,0.00,,,0.30,12,Wunderground v.1.15,2013-09-11 23:05:00,
2013-09-11 19:10:00,71.1,69.6,30.17,WNW,286,0.0,0.0,95,0.00,,,0.30,12,Wunderground v.1.15,2013-09-11 23:10:00,
2013-09-11 19:19:00,70.7,69.2,30.17,WNW,286,0.0,0.0,95,0.00,,,0.30,11,Wunderground v.1.15,2013-09-11 23:19:00,
2013-09-11 19:25:00,70.5,69.0,30.17,WNW,286,0.0,0.0,95,0.00,,,0.30,7,Wunderground v.1.15,2013-09-11 23:25:00,
2013-09-11 19:30:00,70.3,69.1,30.17,WNW,286,0.0,0.0,96,0.00,,,0.30,5,Wunderground v.1.15,2013-09-11 23:30:00,
2013-09-11 19:35:00,70.2,69.0,30.17,WNW,286,0.0,0.0,96,0.00,,,0.30,0,Wunderground v.1.15,2013-09-11 23:35:00,
2013-09-11 19:44:00,70.0,69.1,30.17,WNW,286,0.0,0.0,97,0.00,,,0.30,0,Wunderground v.1.15,2013-09-11 23:44:00,
2013-09-11 19:49:00,69.9,69.0,30.17,WNW,286,0.0,1.0,97,0.00,,,0.30,0,Wunderground v.1.15,2013-09-11 23:49:00,
2013-09-11 19:55:00,69.6,68.4,30.17,NW,310,1.0,1.0,96,0.00,,,0.30,0,Wunderground v.1.15,2013-09-11 23:55:00,
2013-09-11 20:00:00,69.5,68.0,30.17,NW,313,1.0,1.0,95,0.00,,,0.30,0,Wunderground v.1.15,2013-09-12 00:00:00,
2013-09-11 20:04:00,69.4,67.9,30.17,NW,313,0.0,1.0,95,0.00,,,0.30,0,Wunderground v.1.15,2013-09-12 00:04:00,
2013-09-11 20:10:00,69.3,68.1,30.17,NW,313,0.0,0.0,96,0.00,,,0.30,0,Wunderground v.1.15,2013-09-12 00:10:00,
2013-09-11 20:20:00,69.2,68.0,30.17,NW,313,0.0,0.0,96,0.00,,,0.30,0,Wunderground v.1.15,2013-09-12 00:20:00,
2013-09-11 20:25:00,68.9,66.8,30.17,NNW,327,0.0,0.0,93,0.00,,,0.30,0,Wunderground v.1.15,2013-09-12 00:25:00,
2013-09-11 20:30:00,69.0,67.5,30.17,NNW,328,0.0,0.0,95,0.00,,,0.30,0,Wunderground v.1.15,2013-09-12 00:30:00,
2013-09-11 20:35:00,68.9,67.4,30.18,NNW,327,0.0,0.0,95,0.00,,,0.30,0,Wunderground v.1.15,2013-09-12 00:35:00,
2013-09-11 20:40:00,68.8,67.3,30.17,NNW,328,0.0,0.0,95,0.00,,,0.30,0,Wunderground v.1.15,2013-09-12 00:40:00,
2013-09-11 20:44:00,68.6,67.1,30.17,NNW,328,0.0,0.0,95,0.00,,,0.30,0,Wunderground v.1.15,2013-09-12 00:44:00,
2013-09-11 20:49:00,68.4,66.6,30.17,NNW,328,0.0,0.0,94,0.00,,,0.30,0,Wunderground v.1.15,2013-09-12 00:49:00,
2013-09-11 20:55:00,68.2,66.7,30.17,NNW,328,0.0,0.0,95,0.00,,,0.30,0,Wunderground v.1.15,2013-09-12 00:55:00,
2013-09-11 21:05:00,67.9,66.4,30.18,North,11,0.0,0.0,95,0.00,,,0.30,0,Wunderground v.1.15,2013-09-12 01:05:00,
2013-09-11 21:10:00,67.8,66.3,30.18,NNE,12,0.0,0.0,95,0.00,,,0.30,0,Wunderground v.1.15,2013-09-12 01:10:00,
2013-09-11 21:15:00,67.6,66.1,30.18,North,11,0.0,1.0,95,0.00,,,0.30,0,Wunderground v.1.15,2013-09-12 01:15:00,
2013-09-11 21:20:00,67.5,65.7,30.18,North,11,0.0,0.0,94,0.00,,,0.30,0,Wunderground v.1.15,2013-09-12 01:20:00,
2013-09-11 21:24:00,67.4,65.9,30.17,North,11,0.0,0.0,95,0.00,,,0.30,0,Wunderground v.1.15,2013-09-12 01:24:00,
2013-09-11 21:29:00,67.4,65.9,30.17,North,11,0.0,0.0,95,0.00,,,0.30,0,Wunderground v.1.15,2013-09-12 01:29:00,
2013-09-11 21:35:00,67.4,65.9,30.17,North,11,0.0,0.0,95,0.00,,,0.30,0,Wunderground v.1.15,2013-09-12 01:35:00,
2013-09-11 21:40:00,67.3,65.8,30.17,North,11,0.0,0.0,95,0.00,,,0.30,0,Wunderground v.1.15,2013-09-12 01:40:00,
2013-09-11 21:45:00,67.2,65.7,30.17,North,11,0.0,0.0,95,0.00,,,0.30,0,Wunderground v.1.15,2013-09-12 01:45:00,
2013-09-11 21:49:00,67.2,66.0,30.17,North,11,0.0,0.0,96,0.00,,,0.30,0,Wunderground v.1.15,2013-09-12 01:49:00,
2013-09-11 21:55:00,67.2,66.0,30.17,North,11,0.0,0.0,96,0.00,,,0.30,0,Wunderground v.1.15,2013-09-12 01:55:00,
2013-09-11 22:00:00,67.2,66.0,30.17,North,11,0.0,0.0,96,0.00,,,0.30,0,Wunderground v.1.15,2013-09-12 02:00:00,
2013-09-11 22:05:00,67.2,66.0,30.17,North,11,0.0,0.0,96,0.00,,,0.30,0,Wunderground v.1.15,2013-09-12 02:05:00,
2013-09-11 22:10:00,67.3,66.1,30.17,North,11,0.0,0.0,96,0.00,,,0.30,0,Wunderground v.1.15,2013-09-12 02:10:00,
2013-09-11 22:15:00,67.3,65.8,30.17,North,11,0.0,0.0,95,0.00,,,0.30,0,Wunderground v.1.15,2013-09-12 02:15:00,
2013-09-11 22:25:00,67.5,65.7,30.17,North,11,0.0,1.0,94,0.00,,,0.30,0,Wunderground v.1.15,2013-09-12 02:25:00,
2013-09-11 22:30:00,67.7,65.6,30.17,North,11,1.0,3.0,93,0.00,,,0.30,0,Wunderground v.1.15,2013-09-12 02:30:00,
2013-09-11 22:39:00,68.4,66.0,30.17,North,5,1.0,1.0,92,0.00,,,0.30,0,Wunderground v.1.15,2013-09-12 02:39:00,
2013-09-11 22:45:00,68.7,66.0,30.17,North,360,1.0,1.0,91,0.00,,,0.30,0,Wunderground v.1.15,2013-09-12 02:45:00,
2013-09-11 22:50:00,68.8,66.1,30.17,North,360,1.0,1.0,91,0.00,,,0.30,0,Wunderground v.1.15,2013-09-12 02:50:00,
2013-09-11 22:54:00,68.9,65.8,30.17,North,360,1.0,3.0,90,0.00,,,0.30,0,Wunderground v.1.15,2013-09-12 02:54:00,
2013-09-11 23:00:00,68.9,65.8,30.17,North,9,1.0,1.0,90,0.00,,,0.30,0,Wunderground v.1.15,2013-09-12 03:00:00,
2013-09-11 23:09:00,69.4,65.7,30.16,North,11,2.0,2.0,88,0.00,,,0.30,0,Wunderground v.1.15,2013-09-12 03:09:00,
2013-09-11 23:15:00,69.5,65.8,30.16,North,11,1.0,2.0,88,0.00,,,0.30,0,Wunderground v.1.15,2013-09-12 03:15:00,
2013-09-11 23:20:00,69.7,65.7,30.16,North,11,2.0,2.0,87,0.00,,,0.30,0,Wunderground v.1.15,2013-09-12 03:20:00,
2013-09-11 23:24:00,69.9,65.9,30.16,NNE,17,2.0,4.0,87,0.00,,,0.30,0,Wunderground v.1.15,2013-09-12 03:24:00,
2013-09-11 23:29:00,70.1,65.7,30.15,NNE,19,2.0,2.0,86,0.00,,,0.30,0,Wunderground v.1.15,2013-09-12 03:29:00,
2013-09-11 23:34:00,70.3,65.9,30.15,North,5,2.0,2.0,86,0.00,,,0.30,0,Wunderground v.1.15,2013-09-12 03:34:00,
2013-09-11 23:39:00,70.5,65.8,30.15,NNE,14,2.0,2.0,85,0.00,,,0.30,0,Wunderground v.1.15,2013-09-12 03:39:00,
2013-09-11 23:45:00,70.6,65.9,30.15,North,360,2.0,2.0,85,0.00,,,0.30,0,Wunderground v.1.15,2013-09-12 03:45:00,
2013-09-11 23:50:00,70.7,66.0,30.14,North,355,2.0,2.0,85,0.00,,,0.30,0,Wunderground v.1.15,2013-09-12 03:50:00,
2013-09-11 23:54:00,70.8,65.7,30.14,NNE,13,2.0,5.0,84,0.00,,,0.30,0,Wunderground v.1.15,2013-09-12 03:54:00,